Weather History for Tri-Cities, TN

Change the Weather History Date:

Friday, October 11, 2013

  Actual Average Record
Temperature  
Mean Temperature 63 °F 58 °F  
Max Temperature 78 °F 71 °F 85 °F (1954)
Min Temperature 48 °F 45 °F 26 °F (2000)
Degree Days  
Heating Degree Days 2 8  
Month to date heating degree days 30 69  
Since 1 July heating degree days 49 122  
Cooling Degree Days 0 0  
Month to date cooling degree days 19 9  
Year to date cooling degree days 997 977  
Growing Degree Days 12 (Base 50)    
Moisture  
Dew Point 48 °F    
Average Humidity 63    
Maximum Humidity 93    
Minimum Humidity 33    
Precipitation  
Precipitation 0.00 in 0.07 in 0.48 in (2011)
Month to date precipitation 0.41 0.75  
Year to date precipitation 47.13 33.19  
Snow  
Snow 0.00 in 0.00 in - ()
Month to date snowfall 0.0 0.0  
Since 1 July snowfall 0.0 0.0  
Since 1 September snowfall 0.0 0.0  
Snow Depth 0.00 in    
Sea Level Pressure  
Sea Level Pressure 30.03 in    
Wind  
Wind Speed 3 mph (NW)    
Max Wind Speed 13 mph    
Max Gust Speed 17 mph    
Visibility 6 miles    
Events Fog    
T = Trace of Precipitation, MM = Missing Value Source: NWS Daily Summary

Daily Weather History Graph

Daily Weather History Graph

Search for Another Location

Airport:

Trip Planner

Search our weather history database for the weather conditions in past years. The results will help you decide how hot, cold, wet, or windy it might be!

Date:

Astronomy

Oct. 11, 2013 Rise Set
Actual Time 7:33 AM EDT 6:58 PM EDT
Civil Twilight 7:07 AM EDT 7:24 PM EDT
Nautical Twilight 6:37 AM EDT 7:54 PM EDT
Astronomical Twilight 6:07 AM EDT 8:23 PM EDT
Moon 2:09 PM EDT (10/11) No Moon Set
Length of Visible Light 12h 16m
Length of Day
11h 24m
Waxing Crescent, 47% of the Moon is Illuminated
Oct 11
Waxing Crescent
Oct 11
First Quarter
Oct 18
Full
Oct 26
Last Quarter
Nov 3
New

Hourly Weather History & Observations

Time (EDT) Temp. Dew Point Humidity Pressure Visibility Wind Dir Wind Speed Gust Speed Precip Events Conditions
12:53 AM 52.0 °F 48.9 °F 89% 30.02 in 10.0 mi NW 5.8 mph - N/A   Scattered Clouds
1:53 AM 50.0 °F 48.0 °F 93% 30.02 in 10.0 mi Calm Calm - N/A   Scattered Clouds
2:42 AM 52.0 °F 48.0 °F 86% 30.07 in 10.0 mi WNW 3.5 mph - N/A   Scattered Clouds
2:53 AM 51.1 °F 48.0 °F 89% 30.03 in 10.0 mi West 4.6 mph - N/A   Scattered Clouds
3:00 AM 51.1 °F 48.0 °F 89% 30.08 in 2.0 mi West 3.5 mph - N/A   Mostly Cloudy
3:08 AM 52.0 °F 48.0 °F 86% 30.07 in 2.0 mi Calm Calm - N/A   Mostly Cloudy
3:19 AM 48.9 °F 46.0 °F 90% 30.07 in 1.0 mi Calm Calm - N/A   Mist
3:53 AM 48.0 °F 46.0 °F 93% 30.01 in 1.0 mi Calm Calm - N/A   Mist
4:00 AM 48.9 °F 46.9 °F 93% 30.06 in 0.2 mi Calm Calm - N/A Fog Fog
4:31 AM 50.0 °F 48.9 °F 96% 30.06 in 0.1 mi Calm Calm - N/A Fog Fog
4:53 AM 51.1 °F 48.9 °F 92% 30.02 in 0.1 mi Calm Calm - N/A Fog Fog
5:53 AM 50.0 °F 48.0 °F 93% 30.03 in 0.1 mi Calm Calm - N/A Fog Fog
6:48 AM 48.2 °F 46.4 °F 93% 30.09 in 0.2 mi Calm Calm - N/A Fog Fog
6:53 AM 48.9 °F 46.9 °F 93% 30.04 in 0.2 mi Calm Calm - N/A Fog Fog
7:06 AM 48.9 °F 46.9 °F 93% 30.09 in 0.1 mi Calm Calm - N/A Fog Fog
7:53 AM 48.9 °F 46.9 °F 93% 30.06 in 0.1 mi Calm Calm - N/A Fog Fog
8:53 AM 50.0 °F 48.9 °F 96% 30.08 in 0.1 mi Calm Calm - N/A Fog Fog
9:23 AM 51.1 °F 50.0 °F 96% 30.11 in 0.1 mi Calm Calm - N/A Fog Fog
9:53 AM 53.1 °F 51.1 °F 93% 30.08 in 1.0 mi Calm Calm - N/A   Mostly Cloudy
10:05 AM 54.0 °F 52.0 °F 93% 30.12 in 3.0 mi Calm Calm - N/A   Scattered Clouds
10:53 AM 61.0 °F 54.0 °F 78% 30.07 in 10.0 mi Calm Calm - N/A   Scattered Clouds
11:53 AM 68.0 °F 51.1 °F 55% 30.04 in 10.0 mi Calm Calm - N/A   Partly Cloudy
12:53 PM 72.0 °F 51.1 °F 48% 30.03 in 10.0 mi West 5.8 mph - N/A   Partly Cloudy
1:53 PM 73.9 °F 50.0 °F 43% 30.00 in 10.0 mi North 5.8 mph - N/A   Partly Cloudy
2:53 PM 73.9 °F 52.0 °F 46% 29.97 in 10.0 mi North 5.8 mph - N/A   Scattered Clouds
3:53 PM 77.0 °F 46.0 °F 33% 29.96 in 10.0 mi North 8.1 mph - N/A   Scattered Clouds
4:53 PM 75.9 °F 45.0 °F 33% 29.95 in 10.0 mi WNW 8.1 mph - N/A   Scattered Clouds
5:53 PM 73.9 °F 43.0 °F 33% 29.96 in 10.0 mi North 6.9 mph - N/A   Scattered Clouds
6:53 PM 69.1 °F 45.0 °F 42% 29.97 in 10.0 mi North 5.8 mph - N/A   Scattered Clouds
7:53 PM 64.9 °F 46.9 °F 52% 29.99 in 10.0 mi North 5.8 mph - N/A   Mostly Cloudy
8:53 PM 64.0 °F 48.9 °F 58% 30.00 in 10.0 mi NNW 3.5 mph - N/A   Overcast
9:53 PM 64.0 °F 48.9 °F 58% 30.00 in 10.0 mi Calm Calm - N/A   Overcast
10:53 PM 62.1 °F 52.0 °F 70% 30.00 in 10.0 mi Calm Calm - N/A   Overcast
11:53 PM 62.1 °F 51.1 °F 67% 29.99 in 10.0 mi Calm Calm - N/A   Overcast